Location: Équennes
(49.7375°N, 1.9622°E)
Time: 23:29:10
(UTC+00:00)

Cosmos 1656 - Pass Details

Date: 08 October 2023
Orbit: 797 x 849 km, 71.1° (Epoch: 03 December)

Event Time Altitude Azimuth Distance (km) Brightness Sun altitude
Rises 19:14:41 0° 334° (NNW) 3,317 7.4 -19.8°
Reaches altitude 10° 19:18:10 10° 357° (N) 2,389 6.3 -20.3°
Maximum altitude 19:21:21 16° 33° (NNE) 2,032 5.5 -20.8°
Enters shadow 19:22:05 15° 42° (NE) 2,053 5.5 -21.0°
